DW9768 Weather Reports


time (UTC)temp
F
wind
direction
speed
knots
gust
knots
rain 1hr
in
rain 24hr
in
rain mn
in
humidity
%
barometer
mb
20260503021615 42 310 4.3 7.8 0.00 0.03 0.00 86 1011.5
20260503020014 42 292 3.5 8.7 0.00 0.03 0.00 87 1011.4
20260503014512 42 325 3.5 7.0 0.00 0.03 0.00 87 1011.3
20260503013011 42 337 4.3 9.6 0.00 0.03 0.00 88 1011.2
20260503011510 42 328 5.2 10.4 0.00 0.03 0.00 88 1011.2
20260503010008 42 322 6.1 11.3 0.00 0.03 0.00 88 1011.2
20260503004505 43 329 7.0 11.3 0.00 0.03 0.00 88 1011.4
20260503003007 43 328 3.5 7.8 0.00 0.03 0.00 88 1011.4
20260503001502 43 355 4.3 9.6 0.00 0.03 0.00 88 1011.4
20260503000059 43 340 4.3 9.6 0.00 0.03 0.00 89 1011.5
20260502234557 44 292 3.5 7.8 0.00 0.03 0.00 89 1011.4
20260502233055 44 318 4.3 8.7 0.00 0.03 0.00 89 1011.4
20260502231553 45 311 5.2 10.4 0.00 0.03 0.00 89 1011.4
20260502230051 45 338 3.5 7.0 0.00 0.03 0.00 89 1011.5
20260502224549 45 316 3.5 7.8 0.00 0.03 0.00 89 1011.5
20260502223047 45 331 1.7 4.3 0.00 0.03 0.00 89 1011.4
20260502221644 45 334 1.7 8.7 0.00 0.03 0.00 89 1011.4
20260502220041 45 328 3.5 8.7 0.00 0.03 0.00 89 1011.3
20260502214537 45 350 6.1 9.6 0.00 0.03 0.03 88 1011.2
20260502213051 46 322 4.3 10.4 0.00 0.03 0.03 87 1011.4
20260502211535 46 333 5.2 7.8 0.00 0.03 0.03 87 1011.5
20260502210036 46 316 2.6 8.7 0.00 0.03 0.03 87 1011.3
20260502204535 46 313 4.3 7.8 0.00 0.03 0.03 86 1011.3
20260502203038 46 323 4.3 9.6 0.00 0.03 0.03 85 1011.5
20260502201527 47 289 4.3 7.0 0.00 0.03 0.03 84 1011.4
20260502200043 47 296 3.5 7.0 0.00 0.03 0.03 83 1011.4
20260502194523 47 279 3.5 6.1 0.00 0.03 0.03 81 1011.2
20260502193024 48 313 1.7 7.8 0.00 0.03 0.03 81 1010.9
20260502191523 48 331 3.5 10.4 0.00 0.03 0.03 80 1010.9
20260502190020 49 276 2.6 6.1 0.00 0.03 0.03 83 1010.9
20260502184523 49 321 1.7 8.7 0.00 0.03 0.03 82 1010.9
20260502183017 49 344 6.1 9.6 0.00 0.03 0.03 82 1010.8
20260502181522 49 325 6.1 9.6 0.00 0.03 0.03 82 1010.7
20260502163007 51 335 3.5 7.0 0.00 0.03 0.03 77 1010.7
20260502161505 50 331 2.6 7.8 0.00 0.03 0.03 77 1010.7
20260502151611 52 321 4.3 8.7 0.00 0.03 0.03 72 1011.2
20260502150158 53 325 3.5 8.7 0.00 0.03 0.03 71 1011.3
20260502123043 48 344 5.2 8.7 0.02 0.03 0.03 79 1012.5
20260502121541 48 323 2.6 7.0 0.03 0.03 0.03 78 1012.5
20260502114540 49 321 1.7 3.5 0.02 0.02 0.02 74 1012.6
20260502113046 50 308 0.9 2.6 0.02 0.02 0.02 74 1012.6
20260502111542 50 262 0.0 2.6 0.00 0.00 0.00 72 1012.4
20260502110037 50 333 0.0 2.6 0.00 0.00 0.00 74 1012.2
20260502104534 50 329 0.9 3.5 0.00 0.00 0.00 73 1012.3
20260502103056 50 328 0.0 0.0 0.00 0.00 0.00 70 1012.7
20260502101545 50 344 0.0 0.0 0.00 0.00 0.00 72 1012.8
20260502091526 50 331 0.9 2.6 0.00 0.00 0.00 73 1013.1
20260502071521 51 126 0.0 0.0 0.00 0.00 0.00 68 1013.4
20260502070019 51 103 0.0 2.6 0.00 0.00 0.00 59 1013.2
20260502064518 51 69 0.9 3.5 0.00 0.00 0.00 58 1013.1
20260502063018 52 92 0.9 3.5 0.00 0.00 0.00 59 1013.1
20260502061517 52 34 0.0 1.7 0.00 0.00 0.00 64 1013.3
20260502060017 52 43 0.0 1.7 0.00 0.00 0.00 63 1013.3
20260502054515 51 355 0.0 0.0 0.00 0.00 0.00 61 1013.2
20260502053012 50 60 0.0 0.0 0.00 0.00 0.00 64 1013.3
20260502051512 48 53 0.0 0.0 0.00 0.00 0.00 68 1013.4
20260502050009 48 111 0.0 0.0 0.00 0.00 0.00 71 1013.6
20260502044507 47 30 0.0 0.0 0.00 0.00 0.00 66 1013.8
20260502043007 47 30 0.0 0.0 0.00 0.00 0.00 66 1013.7
20260502041504 47 37 0.0 0.0 0.00 0.00 0.00 61 1013.9
20260502040002 47 37 0.0 0.0 0.00 0.00 0.00 61 1014.3
20260502034603 47 37 0.0 0.0 0.00 0.00 0.00 62 1014.3
20260502034501 47 37 0.0 0.0 0.00 0.00 0.00 62 1014.3
20260502033100 47 74 0.0 0.0 0.00 0.00 0.00 63 1014.3
20260502031558 47 63 0.0 2.6 0.00 0.00 0.00 64 1014.5
20260502030106 47 44 0.0 1.7 0.00 0.00 0.00 63 1014.7
20260502024552 48 63 0.0 0.9 0.00 0.00 0.00 62 1014.9
20260502023056 47 67 0.0 0.0 0.00 0.00 0.00 63 1015.2